{"data":{"norad_id":51968,"epoch":"2026-05-24T23:13:27.357600Z","epoch_age_seconds":74247,"freshness":"FRESH","line1":"1 51968U 22025N   26144.96767775 -.00000789  00000+0 -13654-4 0  9999","line2":"2 51968  53.1613  29.5165 0001361  94.4438 265.6718 15.31706480232705","mean_motion":15.3170648,"eccentricity":0.0001361,"inclination_deg":53.1613,"raan_deg":29.5165,"arg_perigee_deg":94.4438,"mean_anomaly_deg":265.6718,"bstar":-1.3654e-5,"rev_number":23270,"period_min":94.012790231194,"perigee_km":469.78854922086,"apogee_km":471.65280828102,"semimajor_km":6848.8576787509,"source":"CELESTRAK","updated_at":"2026-05-25T13:38:16.992975Z"}}